Stillwater Regional Airport
KSWO : now visible

Airfield :











YOU CAN JOIN US ON...

 
LOGIN :

Register | Disclaimer

   EN    FR    IT 

 









Legend :    VFR   Marginal VFR   IFR   Intensive IFR   Very Intensive IFR
Visi :
Ceiling :
>= 8 km
>= 3000ft
5 to 8 km
1000 to 3000 ft
1500m to 5 km
500 to 1000 ft
800 to 1500m
200 to 500 ft
< 800m
< 200 ft
Symbols :   Thunderstorms  Fog  Heavy snow  Heavy precipitations  Wind > 20 kt






- Airport Elevation : 1000 ft


KSWO - Stillwater Regional

CURRENT METAR :
  • 221653Z 27007G15KT 10SM CLR 17/M01 A3020 RMK AO2 SLP222 T01671006

EXPIRED METARs :
  • 221553Z 24009KT 10SM CLR 14/01 A3020 RMK AO2 SLP223 T01440006
  • 221453Z 27004KT 10SM CLR 11/01 A3019 RMK AO2 SLP223 T01110006 53014

TAF N/A



MET'MAP, your aeronautical weather chart ! - Copyright ORBIFLY December 2007 - Disclaimer

ORBIFLY MET'MAP TEAM :

Programming & Development : Alexandra Zaïnal
Concept & Development : Baudouin d'Aumeries
Co-Development & Prog : Marc-Olivier Méhu
Technical & hardware support : Manuel Goepfert

Contact : metmap@orbifly.com




SOURCES & CREDITS :

   NOAA       Earth
Advisory